Date,TemperatureHighF,TemperatureAvgF,TemperatureLowF,DewpointHighF,DewpointAvgF,DewpointLowF,HumidityHigh,HumidityAvg,HumidityLow,PressureMaxIn,PressureMinIn,WindSpeedMaxMPH,WindSpeedAvgMPH,GustSpeedMaxMPH,PrecipitationSumIn
2013-1-1,55,48,36,54,43,30,95,84,70,30.28,29.97,18,6,19,0.11
2013-1-2,45,36,26,31,28,23,92,73,50,30.39,30.27,13,2,15,0.00
2013-1-3,44,37,23,33,28,21,92,72,56,30.51,30.37,16,2,18,0.00
2013-1-4,43,38,34,37,34,30,93,86,59,30.56,30.42,9,2,12,0.32
2013-1-5,55,43,32,42,38,30,93,83,59,30.43,30.24,6,1,9,0.04
2013-1-6,58,43,27,35,30,25,95,66,34,30.45,30.32,13,3,20,0.00
2013-1-7,54,42,24,41,33,22,93,72,49,30.36,30.07,12,3,14,0.00
2013-1-8,52,49,46,50,46,40,93,90,71,30.09,29.90,14,4,18,1.24
2013-1-9,58,55,48,55,52,46,94,91,86,30.04,29.81,32,6,34,0.76
2013-1-10,63,49,41,48,44,38,96,84,55,30.05,29.96,21,2,21,0.01
2013-1-11,74,59,40,62,52,38,94,79,58,30.01,29.79,21,4,22,0.00
2013-1-12,75,63,41,67,55,32,94,78,55,29.94,29.62,21,7,26,0.01
2013-1-13,49,41,34,33,27,22,71,59,43,30.23,29.93,20,10,24,0.00
2013-1-14,48,38,30,30,25,21,70,60,42,30.31,30.12,16,6,18,0.00
2013-1-15,39,36,32,32,29,22,89,76,62,30.32,30.15,19,8,24,0.00
2013-1-16,51,38,26,25,21,13,80,53,22,30.40,30.22,19,4,23,0.00
2013-1-17,64,46,27,38,31,23,91,59,31,30.52,30.34,13,3,19,0.00
2013-1-18,64,45,26,38,32,24,92,64,30,30.54,30.32,11,2,13,0.00
2013-1-19,68,50,38,48,40,32,92,72,40,30.33,30.14,10,2,18,0.00
2013-1-20,73,53,33,47,41,31,93,69,31,30.26,30.07,7,1,14,0.00
2013-1-21,69,53,38,48,42,36,93,68,39,30.26,30.13,11,2,15,0.00
2013-1-22,71,54,37,52,44,34,88,70,47,30.32,30.18,14,2,18,0.00
2013-1-23,73,56,44,58,50,42,93,82,56,30.33,30.17,14,2,15,0.00
2013-1-24,82,65,52,62,56,50,95,76,43,30.23,30.05,10,2,16,0.00
2013-1-25,82,66,50,62,56,45,93,73,43,30.14,29.97,17,4,20,0.00
2013-1-26,62,55,48,57,51,44,92,87,79,30.17,30.06,8,2,11,0.00
2013-1-27,77,67,55,65,60,52,92,80,60,30.09,29.91,16,7,21,0.00
2013-1-28,76,71,68,66,65,64,87,81,67,29.98,29.80,17,8,25,0.00
2013-1-29,81,68,52,66,54,21,88,65,28,29.83,29.47,27,9,33,0.06
2013-1-30,57,48,28,30,22,13,77,38,19,30.24,29.77,29,10,36,0.00
2013-1-31,68,44,24,31,23,19,87,52,17,30.32,30.17,12,2,20,0.00